Date String (YYYY-MM-DD hh:mm:ss) UTC,Instrument flags,absolute air pressure of the measurement (hPa),sample flow rate (lpm),inlet stack bypass flow (lpm),air temperature of the measurement (°C),ambient temperature measured by the external sensor (°C),aerosol sample conditioner tube jacket temperature (°C),OPC LED temperature (°C),internal box temperature (°C),relative humidity of the measurement (%),span deviation,mass concentration of particles derived from Lorenz-Mie calculation of OPC scattering (μg/m³),mass concentration of particles derived from Lorenz-Mie calculation of OPC scattering (μg/m³),mass concentration of particles derived from Lorenz-Mie calculation of OPC scattering (μg/m³)
DateTimeUTC,F1_M11,P_M11,Q1_M11,Q2_M11,T1_M11,T2_M11,T3_M11,T4_M11,T5_M11,U1_M11,ZSPAN_M11,X0_M11,X2_M11,X1_M11
2024-02-22 04:00:00,SystemResetWarning,0825.0,5.00,000.00,023.9,023.2,000.0,032.5,025.7,15.5,0000.0,0010.48,0003.34,0002.15
2024-02-22 04:01:00,SystemResetWarning,0825.1,4.99,000.00,023.9,023.2,000.0,032.5,025.7,15.5,0000.0,0010.26,0003.34,0002.17
2024-02-22 04:02:00,SystemResetWarning,0825.2,4.99,000.00,023.9,023.2,000.0,032.5,025.7,15.5,0000.0,0010.24,0003.35,0002.17
2024-02-22 04:03:00,SystemResetWarning,0825.2,4.99,000.00,023.9,023.2,000.0,032.5,025.7,15.5,0000.0,0010.02,0003.34,0002.19
2024-02-22 04:04:00,SystemResetWarning,0825.2,5.00,000.00,023.9,023.2,000.0,032.5,025.7,15.6,0000.0,0009.66,0003.31,0002.21
2024-02-22 04:05:00,SystemResetWarning,0825.3,4.99,000.00,023.9,023.2,000.0,032.5,025.7,15.6,0000.0,0009.32,0003.30,0002.20
2024-02-22 04:06:00,SystemResetWarning,0825.3,5.00,000.00,023.9,023.2,000.0,032.4,025.7,15.6,0000.0,0009.46,0003.28,0002.20
2024-02-22 04:07:00,SystemResetWarning,0825.4,5.00,000.00,023.9,023.2,000.0,032.4,025.6,15.5,0000.0,0009.43,0003.26,0002.21
2024-02-22 04:08:00,SystemResetWarning,0825.3,5.00,000.00,023.9,023.2,000.0,032.4,025.6,15.5,0000.0,0010.11,0003.29,0002.24
2024-02-22 04:09:00,SystemResetWarning,0825.3,5.00,000.00,023.8,023.1,000.0,032.4,025.6,15.5,0000.0,0010.99,0003.33,0002.26
2024-02-22 04:10:00,SystemResetWarning,0825.3,5.00,000.00,023.8,023.1,000.0,032.4,025.6,15.6,0000.0,0010.61,0003.30,0002.26
2024-02-22 04:11:00,SystemResetWarning,0825.3,5.00,000.00,023.8,023.1,000.0,032.4,025.5,15.6,0000.0,0010.13,0003.29,0002.26
2024-02-22 04:12:00,SystemResetWarning,0825.3,5.00,000.00,023.8,023.1,000.0,032.4,025.6,15.6,0000.0,0010.74,0003.29,0002.26
2024-02-22 04:13:00,SystemResetWarning,0825.2,5.00,000.00,023.8,023.1,000.0,032.4,025.6,15.6,0000.0,0011.21,0003.27,0002.28
2024-02-22 04:14:00,SystemResetWarning,0825.3,5.01,000.00,023.8,023.1,000.0,032.4,025.5,15.6,0000.0,0011.86,0003.28,0002.28
2024-02-22 04:15:00,SystemResetWarning,0825.2,5.00,000.00,023.8,023.1,000.0,032.4,025.5,15.6,0000.0,0011.61,0003.30,0002.27
2024-02-22 04:16:00,SystemResetWarning,0825.3,5.00,000.00,023.8,023.1,000.0,032.4,025.5,15.6,0000.0,0011.65,0003.30,0002.28
2024-02-22 04:17:00,SystemResetWarning,0825.3,4.99,000.00,023.8,023.1,000.0,032.4,025.5,15.6,0000.0,0011.48,0003.29,0002.29
2024-02-22 04:18:00,SystemResetWarning,0825.4,4.99,000.00,023.8,023.1,000.0,032.3,025.5,15.7,0000.0,0011.98,0003.30,0002.28
2024-02-22 04:19:00,SystemResetWarning,0825.4,4.99,000.00,023.8,023.1,000.0,032.3,025.5,15.7,0000.0,0011.99,0003.26,0002.27
2024-02-22 04:20:00,SystemResetWarning,0825.5,5.00,000.00,023.8,023.1,000.0,032.3,025.5,15.7,0000.0,0011.11,0003.23,0002.26
2024-02-22 04:21:00,SystemResetWarning,0825.5,5.00,000.00,023.7,023.0,000.0,032.3,025.5,15.8,0000.0,0011.46,0003.25,0002.28
2024-02-22 04:22:00,SystemResetWarning,0825.5,5.00,000.00,023.7,023.0,000.0,032.3,025.5,15.8,0000.0,0012.56,0003.22,0002.27
2024-02-22 04:23:00,SystemResetWarning,0825.5,5.00,000.00,023.7,023.0,000.0,032.3,025.5,15.8,0000.0,0012.39,0003.19,0002.27
2024-02-22 04:24:00,SystemResetWarning,0825.6,5.01,000.00,023.7,022.9,000.0,032.3,025.4,15.9,0000.0,0012.19,0003.22,0002.26
2024-02-22 04:25:00,SystemResetWarning,0825.6,5.00,000.00,023.7,022.9,000.0,032.3,025.4,16.0,0000.0,0011.45,0003.27,0002.27
2024-02-22 04:26:00,SystemResetWarning,0825.7,5.00,000.00,023.6,022.9,000.0,032.2,025.3,16.0,0000.0,0012.07,0003.30,0002.26
2024-02-22 04:27:00,SystemResetWarning,0825.7,5.00,000.00,023.6,022.9,000.0,032.2,025.3,16.0,0000.0,0012.08,0003.30,0002.24
2024-02-22 04:28:00,SystemResetWarning,0825.7,5.00,000.00,023.6,022.8,000.0,032.2,025.2,16.0,0000.0,0011.81,0003.29,0002.21
2024-02-22 04:29:00,SystemResetWarning,0825.7,5.00,000.00,023.6,022.8,000.0,032.2,025.2,16.1,0000.0,0011.43,0003.28,0002.20
2024-02-22 04:30:00,SystemResetWarning,0825.7,5.00,000.00,023.6,022.8,000.0,032.2,025.2,16.1,0000.0,0011.83,0003.31,0002.18
2024-02-22 04:31:00,SystemResetWarning,0825.7,5.00,000.00,023.5,022.7,000.0,032.1,025.1,16.1,0000.0,0011.96,0003.30,0002.15
2024-02-22 04:32:00,SystemResetWarning,0825.6,5.00,000.00,023.5,022.7,000.0,032.1,025.1,16.1,0000.0,0011.63,0003.29,0002.12
2024-02-22 04:33:00,SystemResetWarning,0825.7,5.00,000.00,023.5,022.7,000.0,032.1,025.1,16.1,0000.0,0010.76,0003.29,0002.10
2024-02-22 04:34:00,SystemResetWarning,0825.7,5.00,000.00,023.5,022.7,000.0,032.1,025.1,16.1,0000.0,0010.21,0003.30,0002.08
2024-02-22 04:35:00,SystemResetWarning,0825.7,5.00,000.00,023.4,022.7,000.0,032.1,025.1,16.1,0000.0,0010.34,0003.26,0002.04
2024-02-22 04:36:00,SystemResetWarning,0825.8,5.00,000.00,023.4,022.6,000.0,032.0,025.1,16.2,0000.0,0010.04,0003.21,0002.00
2024-02-22 04:37:00,SystemResetWarning,0825.8,5.00,000.00,023.4,022.6,000.0,032.0,025.1,16.2,0000.0,0009.44,0003.18,0001.99
2024-02-22 04:38:00,SystemResetWarning,0825.8,4.99,000.00,023.4,022.6,000.0,032.0,025.1,16.2,0000.0,0009.61,0003.17,0001.98
2024-02-22 04:39:00,SystemResetWarning,0825.7,5.00,000.00,023.4,022.6,000.0,032.0,025.1,16.1,0000.0,0009.46,0003.18,0001.99
2024-02-22 04:40:00,SystemResetWarning,0825.7,5.00,000.00,023.4,022.6,000.0,032.0,025.1,16.2,0000.0,0009.55,0003.17,0001.98
2024-02-22 04:41:00,SystemResetWarning,0825.6,5.00,000.00,023.4,022.6,000.0,032.0,025.1,16.2,0000.0,0008.86,0003.15,0001.96
2024-02-22 04:42:00,SystemResetWarning,0825.6,5.00,000.00,023.3,022.6,000.0,031.9,025.0,16.2,0000.0,0008.25,0003.12,0001.95
2024-02-22 04:43:00,SystemResetWarning,0825.6,5.00,000.00,023.3,022.6,000.0,031.9,025.0,16.2,0000.0,0008.14,0003.12,0001.93
2024-02-22 04:44:00,SystemResetWarning,0825.7,5.01,000.00,023.3,022.6,000.0,031.9,025.0,16.2,0000.0,0008.03,0003.10,0001.92
2024-02-22 04:45:00,SystemResetWarning,0825.7,5.00,000.00,023.3,022.6,000.0,031.9,025.0,16.3,0000.0,0007.79,0003.09,0001.91
2024-02-22 04:46:00,SystemResetWarning,0825.7,5.00,000.00,023.3,022.5,000.0,031.9,024.9,16.3,0000.0,0007.53,0003.06,0001.91
2024-02-22 04:47:00,SystemResetWarning,0825.8,4.99,000.00,023.3,022.5,000.0,031.9,024.9,16.3,0000.0,0007.41,0003.03,0001.91
2024-02-22 04:48:00,SystemResetWarning,0825.7,5.00,000.00,023.2,022.5,000.0,031.8,024.9,16.3,0000.0,0007.82,0003.01,0001.90
2024-02-22 04:49:00,SystemResetWarning,0825.8,5.01,000.00,023.2,022.5,000.0,031.8,024.9,16.3,0000.0,0008.25,0002.98,0001.92
2024-02-22 04:50:00,SystemResetWarning,0825.7,5.00,000.00,023.2,022.5,000.0,031.8,024.9,16.4,0000.0,0008.28,0002.98,0001.91
2024-02-22 04:51:00,SystemResetWarning,0825.7,5.00,000.00,023.2,022.5,000.0,031.8,024.9,16.4,0000.0,0008.15,0002.95,0001.91
2024-02-22 04:52:00,SystemResetWarning,0825.7,5.00,000.00,023.2,022.4,000.0,031.8,024.9,16.4,0000.0,0008.10,0002.91,0001.91
2024-02-22 04:53:00,SystemResetWarning,0825.7,5.00,000.00,023.2,022.4,000.0,031.8,024.8,16.4,0000.0,0008.54,0002.91,0001.91
2024-02-22 04:54:00,SystemResetWarning,0825.8,5.00,000.00,023.1,022.4,000.0,031.7,024.8,16.4,0000.0,0008.56,0002.90,0001.91
2024-02-22 04:55:00,SystemResetWarning,0825.8,5.00,000.00,023.1,022.3,000.0,031.7,024.8,16.4,0000.0,0008.53,0002.93,0001.92
2024-02-22 04:56:00,SystemResetWarning,0825.9,4.99,000.00,023.1,022.3,000.0,031.7,024.7,16.4,0000.0,0008.47,0002.92,0001.93
2024-02-22 04:57:00,SystemResetWarning,0825.9,5.01,000.00,023.1,022.3,000.0,031.7,024.8,16.5,0000.0,0008.95,0002.94,0001.92
2024-02-22 04:58:00,SystemResetWarning,0825.9,5.02,000.00,023.1,022.3,000.0,031.7,024.8,16.5,0000.0,0009.16,0002.95,0001.92
2024-02-22 04:59:00,SystemResetWarning,0825.9,5.01,000.00,023.0,022.2,000.0,031.7,024.7,16.5,0000.0,0008.86,0002.93,0001.90
